FLOCK 3P-57 (41978 NORAD) Tracking and Keplerian Element Data

This shows tracking and keplerian element data for the satellite.

Feedback or suggestion? Click here.




ElementValue
Catalog41978
NameFLOCK 3P-57
Epoch Orbit32111
Epoch Day325.18180627
Epoch Year2022
RAAN31.5114
Inclination97.2544
Eccentricity0.0003548
Argument of Perigee359.0765
Mean Anonmoly1.0485
Mean Motion15.61499118
Decay Rate0.0020546
L11 41978U 17008AG 22325.18180627 .00205460 00000+0 23473-2 0 9999
L22 41978 97.2544 31.5114 0003548 359.0765 1.0485 15.61499118321113



Live tracking and technical data element details for FLOCK 3P-57 (NORAD 41978). FLOCK 3P-57 can be tracked NOW for your location showing map with azimuth and elevation plus other details from your city location.







IsCatalogInMostPopularTable: catalog: 41978, numindb: 556
Update: records affected: 1



GetName: 41978 FLOCK 3P-57

Hit Count: updated at: Fri, 16 May 2025 10:26:31 GMT